Tracking 22458 objects as of 2-Mar-2021
HD Live streaming from Space Station
objects crossing your sky now

BLOCK DM-SL R/B

Track BLOCK DM-SL R/B now!


NORAD ID: 39774
Int'l Code: 2014-030B
Perigee: 391.5 km
Apogee: 35,478.2 km
Inclination: 0.3 °
Period: 628.5 minutes
Semi major axis: 24305 km
RCS: Unknown
Launch date: May 26, 2014
Source: Sea Launch (SEAL)
Launch site: SEA LAUNCH (SEAL)

Note: This is a ROCKET BODY
aabbcc
Your satellite tracking list
Your tracking list is empty




NASA's NSSDC Master Catalog

Two Line Element Set (TLE):
1 39774U 14030B   21060.25271832 -.00000064  00000-0  59877-4 0  9998
2 39774   0.2607 319.9024 7217750 174.2657 314.3453  2.29106399 56517
Source of the keplerian elements: AFSPC